| time (UTC) | temp F | wind direction | speed knots | gust knots | rain 1hr in | rain 24hr in | rain mn in | humidity % | barometer mb |
| 20260503213053 | 87 | 0 | 0.9 | 2.6 | 0.00 | 0.00 | 0.00 | 31 | 1009.3 |
| 20260503211551 | 87 | 316 | 0.9 | 2.6 | 0.00 | 0.00 | 0.00 | 33 | 1009.4 |
| 20260503210055 | 87 | 344 | 0.9 | 5.2 | 0.00 | 0.00 | 0.00 | 31 | 1009.5 |
| 20260503204602 | 86 | 200 | 0.9 | 3.5 | 0.00 | 0.00 | 0.00 | 29 | 1009.7 |
| 20260503203100 | 85 | 0 | 0.9 | 3.5 | 0.00 | 0.00 | 0.00 | 36 | 1009.9 |
| 20260503201554 | 84 | 173 | 0.9 | 5.2 | 0.00 | 0.00 | 0.00 | 34 | 1010.0 |
| 20260503200051 | 84 | 0 | 0.9 | 3.5 | 0.00 | 0.00 | 0.00 | 35 | 1010.2 |
| 20260503194611 | 84 | 59 | 0.9 | 4.3 | 0.00 | 0.00 | 0.00 | 36 | 1010.3 |
| 20260503193054 | 83 | 38 | 0.9 | 4.3 | 0.00 | 0.00 | 0.00 | 35 | 1010.3 |
| 20260503191601 | 81 | 0 | 0.0 | 2.6 | 0.00 | 0.00 | 0.00 | 41 | 1010.4 |
| 20260503184556 | 79 | 190 | 0.9 | 2.6 | 0.00 | 0.00 | 0.00 | 44 | 1010.7 |
| 20260503183104 | 78 | 99 | 0.9 | 5.2 | 0.00 | 0.00 | 0.00 | 46 | 1010.8 |
| 20260503181553 | 76 | 53 | 0.9 | 3.5 | 0.00 | 0.00 | 0.00 | 46 | 1011.0 |
| 20260503180107 | 75 | 84 | 0.9 | 2.6 | 0.00 | 0.00 | 0.00 | 45 | 1011.0 |
| 20260503174551 | 73 | 0 | 0.0 | 2.6 | 0.00 | 0.00 | 0.00 | 49 | 1011.1 |
| 20260503173147 | 71 | 49 | 0.9 | 5.2 | 0.00 | 0.00 | 0.00 | 53 | 1011.2 |
| 20260503171553 | 71 | 54 | 0.9 | 3.5 | 0.00 | 0.00 | 0.00 | 57 | 1011.1 |
| 20260503130104 | 59 | 306 | 0.9 | 7.8 | 0.00 | 0.00 | 0.00 | 72 | 1011.1 |
| 20260503100109 | 59 | 275 | 0.0 | 3.5 | 0.00 | 0.00 | 0.00 | 74 | 1011.7 |
| 20260503081558 | 61 | 119 | 0.0 | 2.6 | 0.00 | 0.00 | 0.00 | 76 | 1012.0 |
| 20260503071558 | 59 | 0 | 0.0 | 1.7 | 0.00 | 0.00 | 0.00 | 83 | 1012.0 |
| 20260503054556 | 63 | 333 | 0.0 | 6.1 | 0.00 | 0.00 | 0.00 | 73 | 1011.6 |
| 20260503053052 | 60 | 26 | 0.0 | 1.7 | 0.00 | 0.00 | 0.00 | 80 | 1011.5 |
| 20260503051555 | 61 | 271 | 0.0 | 1.7 | 0.00 | 0.00 | 0.00 | 79 | 1012.3 |
| 20260503050058 | 61 | 0 | 0.0 | 1.7 | 0.00 | 0.00 | 0.00 | 79 | 1012.2 |
| 20260503044557 | 61 | 0 | 0.0 | 1.7 | 0.00 | 0.00 | 0.00 | 80 | 1012.1 |
| 20260503043049 | 61 | 347 | 0.0 | 1.7 | 0.00 | 0.00 | 0.00 | 79 | 1012.1 |
| 20260503041553 | 61 | 0 | 0.0 | 0.9 | 0.00 | 0.00 | 0.00 | 79 | 1012.3 |
| 20260503040052 | 60 | 5 | 0.9 | 2.6 | 0.00 | 0.00 | 0.00 | 80 | 1012.2 |
| 20260503034552 | 61 | 0 | 0.0 | 0.9 | 0.00 | 0.00 | 0.00 | 79 | 1012.0 |
| 20260503033051 | 61 | 0 | 0.0 | 0.9 | 0.00 | 0.00 | 0.00 | 78 | 1011.9 |
| 20260503031557 | 62 | 0 | 0.0 | 1.7 | 0.00 | 0.00 | 0.00 | 76 | 1011.9 |
| 20260503030051 | 62 | 0 | 0.0 | 1.7 | 0.00 | 0.00 | 0.00 | 75 | 1012.0 |
| 20260503024554 | 63 | 339 | 0.9 | 6.1 | 0.00 | 0.00 | 0.00 | 74 | 1012.0 |
| 20260503023055 | 64 | 108 | 2.6 | 10.4 | 0.00 | 0.00 | 0.00 | 71 | 1012.0 |
| 20260503021549 | 67 | 241 | 1.7 | 9.6 | 0.00 | 0.00 | 0.00 | 67 | 1012.1 |
| 20260503020058 | 68 | 180 | 0.0 | 1.7 | 0.00 | 0.00 | 0.00 | 66 | 1011.2 |
| 20260503014554 | 68 | 0 | 0.0 | 1.7 | 0.00 | 0.00 | 0.00 | 66 | 1011.1 |
| 20260503013051 | 68 | 0 | 0.0 | 0.9 | 0.00 | 0.00 | 0.00 | 69 | 1010.9 |
| 20260503011607 | 68 | 0 | 0.0 | 0.9 | 0.00 | 0.00 | 0.00 | 67 | 1010.9 |
| 20260503010052 | 68 | 0 | 0.0 | 1.7 | 0.00 | 0.00 | 0.00 | 67 | 1011.0 |
| 20260503004614 | 67 | 151 | 0.0 | 1.7 | 0.00 | 0.00 | 0.00 | 70 | 1011.1 |
| 20260503003053 | 68 | 0 | 0.0 | 1.7 | 0.00 | 0.00 | 0.00 | 68 | 1011.0 |
| 20260503001554 | 67 | 0 | 0.0 | 1.7 | 0.00 | 0.00 | 0.00 | 70 | 1011.1 |
| 20260503000108 | 69 | 0 | 0.0 | 1.7 | 0.00 | 0.00 | 0.00 | 66 | 1011.1 |
| 20260502234559 | 69 | 142 | 0.9 | 2.6 | 0.00 | 0.00 | 0.00 | 64 | 1011.2 |
| 20260502233051 | 68 | 0 | 0.0 | 1.7 | 0.00 | 0.00 | 0.00 | 64 | 1011.6 |
| 20260502231615 | 69 | 0 | 0.0 | 0.9 | 0.00 | 0.00 | 0.00 | 66 | 1011.5 |
| 20260502230054 | 68 | 178 | 0.9 | 2.6 | 0.00 | 0.00 | 0.00 | 61 | 1011.7 |
| 20260502224559 | 69 | 315 | 0.0 | 1.7 | 0.00 | 0.00 | 0.00 | 64 | 1012.0 |
| 20260502223057 | 69 | 292 | 0.0 | 3.5 | 0.00 | 0.00 | 0.00 | 61 | 1012.2 |
| 20260502221554 | 68 | 168 | 0.0 | 4.3 | 0.00 | 0.00 | 0.00 | 65 | 1012.4 |
| 20260502220053 | 68 | 26 | 0.9 | 2.6 | 0.00 | 0.00 | 0.00 | 62 | 1012.6 |
| 20260502214552 | 66 | 187 | 0.9 | 5.2 | 0.00 | 0.00 | 0.00 | 69 | 1012.7 |